Showing default

COSMOS 2424 (GLONASS), 29672

Orbit data source: Space-Track

COSMOS 2424 (GLONASS), 29672 is a Commonwealth of Independent States-origin payload satellite in MEO that was launched on Mon, 25 Dec 2006 UTC via a PROTON-K/DM-2 launch vehicle from the Tyuratam Missile And Space Complex (TTMTR). Payload-class satellites include a variety of spacecraft equipped with specific instruments for various scientific and technological missions. These include communications satellites like Starlink; space stations such as the ISS; scientific satellites like the Hubble; Earth observation satellites from companies like Planet Labs, Umbra, and HawkEye 360; GPS; miniature CubeSats for education and research; and military/defense satellites.

Loading next visibility...
Identifier
29672, 2006-062C
Orbit
MEO
Last TLE update
16 hours ago
Origin
Manufacturer
Resehetnev ISS
Mission
Non-operational Defense Navigation
Bus & Motor
URAGAN, Unknown motor
Mass
1,450 kg wet, ~1,200 kg dry
Launch date (UTC)
2006-12-25 (19 years ago)
Launch vehicle
PROTON-K/DM-2
Launch site
Tyuratam Missile And Space Complex (TTMTR)
Object type
Payload
Rocket body
Debris
Shape & HBR
Cyl + 1 Arm + 2 Pan, 7.8 m
Radar Cross Section
8.145 m², Large (>1 m²)

Expand to show TLE details & history

TLE from 16 hours ago
0 COSMOS 2424 (GLONASS)
1 29672U 06062C   25182.38764882  .00000061  00000-0  00000-0 0  9991
2 29672  64.6947 205.9729 0019728 176.1050 183.9605  2.13122944144105
Epoch: 2025-07-01T09:18Z
TLE epoch observation values (Epoch: 2025-07-01T09:18:12.858Z)
Latitude
-0.00006°
Longitude
146.74057°
Altitude
19,178.969 km
Speed
3.945 km/s
True Right ascension
13h 43m 54s
True Declination
0° 00' 00"
Sunlit
Object was in daylight at epoch
Visualization orbit readout
Latitude
21.03668°
Longitude
-43.75157°
Altitude
19,081.293 km
Speed
3.961 km/s
Apparent Right ascension
01h 03m 06s
Apparent Declination
9° 59' 60"
Sunlit
Object is in daylight
Visualization observer readout
Local Sidereal Time
13:08:47
Azimuth
1.826° NNE
Elevation
-40.067°
Doppler factor
1
Orbital elements
Apogee altitude
19,178.16 km
Perigee altitude
19,077.524 km
Semi-major axis
25,505.979 km
Eccentricity
0.00197
Inclination
64.6947°
RAAN
205.9729°
Arg. of periapsis
176.105°
True anomaly
Unknown
Mean anomaly
183.9605°
Eccentric anomaly
Unknown
Mean motion
0.53282 °/min
Orbital period
675.65 mins
BSTAR
0
Loading maneuver chart data...
Loading SW <> Apogee altitude chart data...
Loading historical data...
Loading historical data...
Loading historical data...
Loading historical data...
Loading historical data...
Loading historical data...
Loading historical data...

COSMOS 2424 (GLONASS) Visibility forecast

Observer location: undefined°, undefined°

Span
Click to sort rows by Start time (UTC) header in descending order
Start Az.
Max El. time (UTC)
Max El. Az.
Max El.
End time (UTC)
End Az.
314 mins2025-07-02 09:04:52.351Z296.803° NW2025-07-02 11:59:52.351Z72.43° E44.832°2025-07-02 14:18:52.351Z171.911° S
|